NSS-9

Last updated on Sat Jul 05 2025 00:02:44 GMT+0000 (Coordinated Universal Time)

1 33749U 09008A 25185.58965317 .00000086 00000+0 00000+0 0 9990 2 33749 0.3627 84.7820 0002306 2.5272 230.8692 1.00273237 60038
UTC large
Height (km)
Speed (km/s)
/
Latitude / Longitude
Inclination (degrees)
Orbital Period (minutes)
Azimuth
Elevation
Range (km)
Doppler Factor

Next 0 passes for location: London (51.5072 / 0.1276)

Sorry there are no passes over London.